Regional Weather Roundup
Issued by NWS Wakefield, VA

Home | Current Version | Previous Version | Text Only | Print | Product List | Glossary Off
Versions: 1 2 3 4 5 6 7 8 9 10 11 12 13 14 15 16 17 18 19 20 21 22 23 24 25 26 27

000
ASUS41 KAKQ 241915
RWRAKQ

REGIONAL WEATHER ROUNDUP
NATIONAL WEATHER SERVICE WAKEFIELD VA
300 PM EDT TUE MAY 24 2016

Note: "fair" indicates few or no clouds below 12,000 feet with no
significant weather and/or obstructions to visibility. * = Denotes
station may not report precipitation (e.g., rain,snow,etc.),
thunder or fog.

VAZ042-051-052>054-056-242000-
NORTHERN VIRGINIA

CITY           SKY/WX    TMP DP  RH WIND       PRES   REMARKS
WASH NATIONAL  FAIR      82  48  30 NW17G24   29.99F
DULLES         SUNNY     81  46  30 CALM      30.08R
FORT BELVOIR   FAIR      82  49  31 NW8       29.99F
QUANTICO       FAIR      82  49  31 NW14G22   30.00F
FREDERICKSBRG* FAIR      82  52  34 W6        30.00F
STAFFORD*      FAIR      80  47  30 W10       30.05S
WARRENTON      FAIR      83  41  22 NW13G18   30.00F
CULPEPER*      FAIR      82  53  37 W7        30.01F
MANASSAS*      SUNNY     82  48  30 NW13      30.00F
LEESBURG*      FAIR      81  52  36 NW14G23   30.01F
WINCHESTER     FAIR      79  52  38 NW10      30.02S
FRONT ROYAL*   MOCLDY    79  52  38 N6        30.01F
LURAY*         FAIR      81  48  32 NW10G20   30.03F
$$

VAZ048-049-060>072-079>083-242000-
CENTRAL AND SOUTH CENTRAL VIRGINIA

CITY           SKY/WX    TMP DP  RH WIND       PRES   REMARKS
RICHMOND       FAIR      82  51  34 NW3       30.03S
CHESTERFIELD*  FAIR      82  50  32 NW6       30.05F
PETERSBURG*    FAIR      83  51  33 W7        30.05S
HANOVER        FAIR      81  51  35 W8G17     30.04S
TAPPAHANNOCK*  FAIR      82  47  29 NW8       30.02S
QUINTON*       FAIR      81  53  38 W9        30.02S
CHARLOTTSVILLE FAIR      82  48  30 CALM      30.03F
GORDONSVILLE*  MOCLDY    82  52  34 SW6       30.02S
ORANGE*        FAIR      82  50  32 SW6       30.03F
LOUISA*        FAIR      84  54  34 W5        30.02S
BUMPASS*       FAIR      80  53  38 CALM      30.02F
FARMVILLE*     FAIR      81  51  35 SW3       30.04S
CREWE*         MOCLDY    80  57  44 W5        30.05S
FORT PICKETT*  NOT AVBL
CHASE CITY*    FAIR      80  52  37 CALM      30.07F
CLARKSVILLE*   FAIR      79  55  44 W6        30.08S
SOUTH HILL*    PTSUNNY   78  59  51 SW7       30.12F
LAWRENCEVILLE* FAIR      80  56  44 NW7       30.05F
EMPORIA*       FAIR      81  57  44 NW7       30.07S
$$

VAZ088>098-242000-
SOUTHEAST VIRGINIA

CITY           SKY/WX    TMP DP  RH WIND       PRES   REMARKS
NORFOLK        FAIR      80  55  42 W12G17    30.02F
VIRGINIA BEACH FAIR      84  56  38 W10G18    30.01F
NORFOLK NAVAL  FAIR      80  56  43 W9        30.04F
WEST POINT*    FAIR      82  51  34 W8        30.03S
SALUDA*        FAIR      79  55  44 NW8       30.01S
NEWPORT NEWS   FAIR      81  57  43 W13       30.02F
LANGLEY AFB    NOT AVBL
FORT EUSTIS    NOT AVBL
WILLIAMSBURG*  FAIR      82  57  42 W10       30.03F
HR EXEC AP*    FAIR      81  59  47 NW8       30.04F
FRANKLIN*      FAIR      80  56  42 NW6       30.05S
US460-WAKEFLD  FAIR      81  52  36 W8        30.04S
$$

VAZ020-022-025-037-045-242000-
WEST CENTRAL AND SOUTHWEST VIRGINIA

CITY           SKY/WX    TMP DP  RH WIND       PRES   REMARKS
STAUNTON*      FAIR      78  49  35 W7        30.08S
WAYNESBORO*    MOCLDY    77  52  41 SW3       30.07F
HOT SPRINGS VA PTSUNNY   67  47  48 W12       30.17F
LYNCHBURG      FAIR      79  49  34 W8        30.09F
DANVILLE       FAIR      80  55  42 VRB7      30.09F
SOUTH BOSTON*  FAIR      80  55  42 SW6       30.08F
MARTINSVILLE   FAIR      77  53  43 CALM      30.12F
ROANOKE        FAIR      76  49  38 NW9       30.11F
BLACKSBURG     FAIR      74  52  46 NW6       30.17F
DUBLIN*        FAIR      76  51  41 E3        30.15F
MARION*        FAIR      73  52  47 SW12      30.19F
HILLSVILLE*    PTSUNNY   72  50  45 CALM      30.16F
RICHLANDS*     FAIR      72  58  61 W9        30.19S
WISE*          FAIR      75  41  29 SW5       30.19F
ABINGDON*      FAIR      75  48  38 NW6       30.17F
$$

MDZ021>025-VAZ099-100-242000-
SOUTHERN MARYLAND AND THE DELMARVA PENINSULA

CITY           SKY/WX    TMP DP  RH WIND       PRES   REMARKS
PATUXENT RIVER PTSUNNY   76  54  46 SE8       29.99S
BAY BRIDGE APT SUNNY     79  52  38 W5        29.97F
LEONARDTOWN    SUNNY     79  46  31 W5        30.00F
DOVER          NOT AVBL
GEORGETOWN     SUNNY     78  53  41 SW9       29.97F
EASTON         MOSUNNY   79  59  50 N6        30.01F
CAMBRIDGE      SUNNY     77  50  38 NW5       29.98F
SALISBURY      SUNNY     77  53  43 NW8       29.98F
OCEAN CITY     SUNNY     76  56  49 SW7       29.98F
WALLOPS ISLAND PTSUNNY   79  53  40 NW12      29.99F
ACCOMACK*      FAIR      75  52  43 CALM      30.01S
$$

NCZ012>017-030>032-242000-
NORTH CENTRAL AND EASTERN NORTH CAROLINA

CITY           SKY/WX    TMP DP  RH WIND       PRES   REMARKS
ROANOKE RAPIDS FAIR      81  54  39 W8        30.07S
RALEIGH        MOSUNNY   81  50  33 W9G17     30.10S
ELIZABETH CITY SUNNY     81  56  42 W9        30.04S
AHOSKIE*       SUNNY     79  56  45 CALM      30.06S
EDENTON*       SUNNY     81  59  47 W7        30.06S
CURRITUCK*     SUNNY     81  55  40 W7        30.05S
KILL DEVIL HLS SUNNY     80  54  40 W8        30.05R
MANTEO         SUNNY     78  56  48 NW9       30.06R
CAPE HATTERAS  SUNNY     73  60  63 SW9       30.09F
TARBORO*       FAIR      83  55  38 W10       30.08S
GOLDSBORO      SUNNY     82  51  34 W10G17    30.08S
WASHINGTON     SUNNY     80  54  40 W8        30.07S
GREENVILLE     SUNNY     81  55  41 W8        30.09S
NEW BERN       SUNNY     81  56  42 W10       30.10S
WILMINGTON     SUNNY     81  51  35 W7        30.12S
$$

VAZ048-242000-
ELSEWHERE

CITY           SKY/WX    TMP DP  RH WIND       PRES   REMARKS
HARRISBURG PA  PTSUNNY   82  50  32 NW13      29.94S
BALTIMORE      PTSUNNY   81  48  31 W17G26    29.96F
ANNAPOLIS      MOSUNNY   75  54  47 SE10      29.96F
ANDREWS AFB    NOT AVBL
PHILADELPHIA   PTSUNNY   78  49  35 SW12      29.91F
HENDERSON NC   SUNNY     78  54  44 SW6       30.09S
GREENSBORO     MOSUNNY   80  48  32 VRB5      30.11F
ROCKY MOUNT    MOSUNNY   82  54  37 MISG      30.08S
$$

VAZ100-242000-
MARINE

STATION/POSITION TIME  TEMP    WIND        PRES    WAVE   SWELL
                       AIR SEA DIR/SP/G            HT/PER HT/PER
                 (UTC) (F)     (DEG/KT/KT) (MB)    (FT/S) (FT/S)
BRANDYWINE LGT   1800   67     290/  7/  7 1015.0F
CAPE MAY NJ      1800   64 64  270/  5/  7 1014.7F
LEWES DE         1800   65 60   10/  3/  3 1015.0F
15NM E FENWICK I 1850   61 58              1015.3F   2/ 9
OCEAN-CITY-INLET 1800   71 59  300/  5/  8 1014.8S
WACHAPREAGUE VA  1800   76 68  320/  6/ 10 1015.8S
THOMAS POINT MD  1900   72 63  160/ 10/ 10 1016.0F
GOOSES REEF MD   1900   69 64  160/  6/  6 1016.3F   0
COVE POINT MD    1800   70      50/  6/  7 1016.3F
SOLOMONS ISLAND  1800   76 62  330/  7/ 10   N/A
BISHOPS HEAD MD  1800   71 69  290/  8/  9 1015.9F
PINEY POINT MD   1800          310/ 11/ 11   N/A
POTOMAC MD       1900   69 64  280/  6/  8 1014.8F   1/ 2
CAMBRIDGE MD     1800   72 63  320/  3/  4 1014.8F
LEWISETTA VA     1800   75 64  320/ 11/ 16 1015.8F
RAPPAHANNOCK LGT 1800          360/  2/  2 1016.8F
STINGRAY PT      1900   73 65  300/  6/  8 1016.5F   1/ 2
YORK RVR RNG VA  1800   74     270/ 11/ 13 1015.9F
YORKTOWN VA      1800   75 65  320/ 10/ 11 1016.3F
JAMESTOWN VA     1900   74 68  290/  6/  8   N/A     0
DOMINION TERM VA 1800   72     320/  6/  8 1017.0F
KIPTOPEKE VA     1800      64  240/  4/  5   N/A
CHES BAY BRIDGE  1800   72 65  240/ 11/ 12 1016.7F
CAPE HENRY VA    1800   75     270/ 11/ 16   N/A
CHESAPEAKE LGHT  1800   71     270/ 14/ 14 1017.5F
WILLOUBY STN VA  1800   75     280/ 12/ 13 1017.9F
CAPE HENRY BUOY  1812      61                N/A     2/11   2/11
1ST LANDING BUOY 1900   70 66  250/ 10/ 12 1016.6F   1/ 4
CAPE CHARLES BUO 1826      62                N/A     2/10   2/10
OFFSHORE WE BUOY 1821      60                N/A     3/10   3/10
64NM E OF VA BCH 1850   61 57  230/ 10/ 12 1017.0F   3/ 9   3/ 9
DUCK PIER NC     1800   72 61  250/ 10/ 15 1016.8F
44100 DUCK FRF   1824      60                N/A     3/10   2/11
44056 DUCK FRF   1811      63                N/A     3/10   2/11
OREGON INLET NC  1800   70 64  180/ 11/ 13 1017.8F
HATTERAS NC      1800   72 66  220/  8/ 13 1018.6S
DIAMOND SHLS NC  1850   72 79  240/ 14/ 17 1019.1F  C1F1C2F2C3F3C4F4C5F5C6F6C7F7C8M1C9!



USA.gov is the U.S. government's official web portal to all federal, state and local government web resources and services.